Location: Bemmer
(51.5498°N, 5.6249°E)
Time: 17:56:57
(UTC+00:00)

Cosmos 1602 - Pass Details

Date: 03 March 2021
Orbit: 512 x 534 km, 82.5° (Epoch: 13 April)

Event Time Altitude Azimuth Distance (km) Brightness Sun altitude
Rises 18:40:16 0° 198° (SSW) 2,655 7.5 -13.0°
Reaches altitude 10° 18:42:25 10° 203° (SSW) 1,774 6.6 -13.3°
Maximum altitude 18:46:16 59° 283° (WNW) 620 4.4 -13.9°
Drops below altitude 10° 18:50:11 10° 4° (N) 1,799 6.5 -14.5°
Sets 18:52:23 0° 8° (N) 2,697 7.4 -14.9°
